Date,TemperatureHighF,TemperatureAvgF,TemperatureLowF,DewpointHighF,DewpointAvgF,DewpointLowF,HumidityHigh,HumidityAvg,HumidityLow,PressureMaxIn,PressureMinIn,WindSpeedMaxMPH,WindSpeedAvgMPH,GustSpeedMaxMPH,PrecipitationSumIn
2013-3-1,52.0,39.3,29.7,30.5,27.0,24.1,80,62,40,30.00,29.89,8,1,12,0.00
2013-3-2,53.8,39.4,30.6,33.0,25.3,17.6,78,58,29,30.02,29.85,11,1,13,0.00
2013-3-3,47.5,32.8,21.9,19.7,14.3,9.8,78,49,26,30.10,29.95,8,1,11,0.00
2013-3-4,61.3,40.1,21.2,25.3,14.0,7.3,69,38,18,30.22,30.02,8,1,11,0.00
2013-3-5,43.5,38.5,34.5,38.3,31.6,21.3,91,77,45,30.11,29.70,5,0,11,0.77
2013-3-6,48.4,36.9,28.6,32.8,23.7,18.9,83,60,42,30.21,29.70,11,2,18,0.00
2013-3-7,58.6,37.8,25.9,31.0,23.8,19.5,80,59,27,30.37,30.16,7,1,10,0.00
2013-3-8,62.2,39.7,20.8,28.7,21.5,15.4,85,54,19,30.41,30.23,4,1,10,0.00
2013-3-9,70.2,45.8,24.8,36.5,26.8,20.4,86,53,19,30.45,30.22,6,1,8,0.00
2013-3-10,70.3,51.9,33.6,38.4,32.8,25.2,87,53,22,30.37,30.16,8,1,10,0.00
2013-3-11,55.2,48.8,42.3,47.1,42.3,34.8,94,78,58,30.24,29.90,4,0,7,0.54
2013-3-12,66.2,52.5,41.0,48.5,39.4,-4.8,96,67,15,30.06,29.79,8,1,11,0.50
2013-3-13,56.5,43.9,32.7,32.1,23.8,14.7,68,47,25,30.25,30.05,8,2,13,0.00
2013-3-14,57.0,39.4,27.1,19.5,13.8,7.1,60,38,18,30.36,30.19,11,1,14,0.00
2013-3-15,69.4,51.0,34.2,40.3,28.6,15.3,66,43,28,30.26,29.90,10,2,17,0.00
2013-3-16,84.4,66.3,49.1,48.9,43.3,39.1,72,46,23,29.94,29.67,11,2,17,0.00
2013-3-17,77.4,59.3,43.0,54.4,46.4,38.6,85,64,38,30.18,29.88,7,1,16,0.00
2013-3-18,42.8,38.3,35.8,38.8,36.3,33.4,96,92,85,30.23,29.92,5,1,8,0.38
2013-3-19,68.2,48.8,36.7,40.8,26.5,8.8,99,52,16,30.14,29.90,8,2,12,0.00
2013-3-20,61.3,45.3,34.7,30.4,14.7,3.8,70,31,17,30.18,29.85,9,1,15,0.00
2013-3-21,48.0,35.9,27.0,30.4,9.8,-0.1,70,35,20,30.06,29.87,11,2,14,0.00
2013-3-22,57.9,38.2,21.9,25.3,14.6,7.3,74,41,19,30.16,29.97,8,1,12,0.00
2013-3-23,63.9,46.9,34.9,40.6,31.9,22.1,81,58,33,30.11,29.90,6,1,9,0.00
2013-3-24,47.1,41.0,35.2,42.2,38.2,32.4,96,90,76,29.97,29.61,4,1,9,0.70
2013-3-25,48.6,37.0,31.3,34.4,27.8,21.0,94,72,40,29.96,29.61,15,2,30,0.07
2013-3-26,50.5,37.9,28.8,29.8,24.0,20.3,74,58,36,30.26,29.95,8,2,13,0.00
2013-3-27,54.0,41.5,30.9,26.1,22.1,15.9,67,48,25,30.32,30.22,8,1,16,0.00